Weather History for Greybull, WY

Change the Weather History Date:

Friday, April 5, 2013

  Actual Average Record
Temperature  
Mean Temperature 54 °F 43 °F  
Max Temperature 66 °F 58 °F 78 °F (2006)
Min Temperature 41 °F 29 °F 18 °F (1999)
Degree Days  
Heating Degree Days 11 22  
Month to date heating degree days 74 111  
Since 1 July heating degree days 6806 6953  
Cooling Degree Days 0 0  
Month to date cooling degree days 0 0  
Year to date cooling degree days 0 0  
Growing Degree Days 6 (Base 50)    
Moisture  
Dew Point 31 °F    
Average Humidity 48    
Maximum Humidity 70    
Minimum Humidity 26    
Precipitation  
Precipitation 0.06 in 0.02 in 0.21 in (1967)
Month to date precipitation 0.06 0.07  
Year to date precipitation 0.57 0.88  
Sea Level Pressure  
Sea Level Pressure 29.69 in    
Wind  
Wind Speed 6 mph (SSE)    
Max Wind Speed 31 mph    
Max Gust Speed 40 mph    
Visibility 10 miles    
Events Rain , Thunderstorm    
T = Trace of Precipitation, MM = Missing Value Source: NWS Daily Summary

Daily Weather History Graph

Daily Weather History Graph

Search for Another Location

Airport:

Trip Planner

Search our weather history database for the weather conditions in past years. The results will help you decide how hot, cold, wet, or windy it might be!

Date:

Astronomy

Apr. 05, 2013 Rise Set
Actual Time 6:45 AM MDT 7:45 PM MDT
Civil Twilight 6:15 AM MDT 8:14 PM MDT
Nautical Twilight 5:40 AM MDT 8:50 PM MDT
Astronomical Twilight 5:03 AM MDT 9:27 PM MDT
Moon 4:05 AM MDT (4/5) 3:02 PM MDT (4/5)
Length of Visible Light 13h 59m
Length of Day
12h 59m
Waning Crescent, 23% of the Moon is Illuminated
Apr 5
Waning Crescent
Apr 10
New
Apr 18
First Quarter
Apr 25
Full
May 2
Last Quarter

Hourly Weather History & Observations

Time (MDT) Temp. Windchill Dew Point Humidity Pressure Visibility Wind Dir Wind Speed Gust Speed Precip Events Conditions
12:53 AM 59.0 °F - 28.0 °F 31% 29.70 in 10.0 mi SSE 3.5 mph - N/A   Mostly Cloudy
1:53 AM 57.0 °F - 27.0 °F 32% 29.70 in 10.0 mi Calm Calm - N/A   Clear
2:53 AM 53.1 °F - 28.0 °F 38% 29.69 in 10.0 mi SE 3.5 mph - N/A   Clear
3:53 AM 48.0 °F - 27.0 °F 44% 29.70 in 10.0 mi Calm Calm - N/A   Clear
4:53 AM 48.0 °F - 28.0 °F 46% 29.69 in 10.0 mi Calm Calm - N/A   Mostly Cloudy
5:53 AM 46.0 °F 44.8 °F 28.0 °F 50% 29.68 in 10.0 mi SSE 3.5 mph - N/A   Mostly Cloudy
6:53 AM 46.0 °F - 28.0 °F 50% 29.68 in 10.0 mi Calm Calm - N/A   Mostly Cloudy
7:53 AM 48.9 °F - 30.0 °F 48% 29.69 in 10.0 mi Calm Calm - N/A   Mostly Cloudy
8:53 AM 51.1 °F - 30.9 °F 46% 29.68 in 10.0 mi SSE 5.8 mph - N/A   Scattered Clouds
9:53 AM 55.9 °F - 32.0 °F 40% 29.65 in 10.0 mi SE 5.8 mph - N/A   Mostly Cloudy
10:53 AM 59.0 °F - 32.0 °F 36% 29.65 in 10.0 mi Calm Calm - N/A   Overcast
11:48 AM 64.4 °F - 32.0 °F 30% 29.70 in 1.5 mi NE 4.6 mph - N/A   Haze
11:53 AM 64.9 °F - 30.9 °F 28% 29.62 in 10.0 mi Variable 3.5 mph - N/A   Mostly Cloudy
12:53 PM 64.0 °F - 30.9 °F 29% 29.60 in 10.0 mi Variable 3.5 mph - N/A   Clear
1:53 PM 66.0 °F - 30.9 °F 27% 29.57 in 10.0 mi SSE 8.1 mph - N/A   Mostly Cloudy
2:53 PM 61.0 °F - 37.0 °F 41% 29.59 in 7.0 mi South 9.2 mph - 0.00 in Rain Light Rain
3:05 PM 57.2 °F - 39.2 °F 51% 29.64 in 10.0 mi Calm Calm - 0.02 in Rain , Thunderstorm Light Thunderstorms and Rain
3:53 PM 55.9 °F - 39.0 °F 53% 29.65 in 10.0 mi NW 24.2 mph 31.1 mph 0.06 in Thunderstorm Thunderstorm
4:04 PM 55.4 °F - 37.4 °F 51% 29.68 in 10.0 mi NNW 19.6 mph 29.9 mph N/A   Overcast
4:53 PM 55.0 °F - 37.0 °F 51% 29.67 in 10.0 mi NNW 18.4 mph 24.2 mph N/A   Overcast
5:53 PM 55.9 °F - 35.1 °F 45% 29.71 in 10.0 mi NNW 11.5 mph - N/A   Mostly Cloudy
6:53 PM 55.9 °F - 33.1 °F 42% 29.72 in 10.0 mi North 5.8 mph - N/A   Mostly Cloudy
7:53 PM 54.0 °F - 28.0 °F 37% 29.74 in 10.0 mi NW 13.8 mph - N/A   Clear
8:53 PM 53.1 °F - 28.9 °F 40% 29.77 in 10.0 mi NW 13.8 mph - N/A   Scattered Clouds
9:53 PM 48.0 °F - 28.0 °F 46% 29.80 in 10.0 mi SSW 3.5 mph - N/A   Clear
10:53 PM 48.0 °F - 27.0 °F 44% 29.81 in 10.0 mi Calm Calm - N/A   Clear
11:53 PM 42.1 °F 39.2 °F 33.1 °F 70% 29.81 in 10.0 mi ESE 4.6 mph - N/A   Scattered Clouds